| time (UTC) | temp F | wind direction | speed MPH | gust MPH | rain 1hr in | rain 24hr in | rain mn in | humidity % | barometer mb |
| 20260905231949 | 81 | 0 | 0.0 | 0.0 | 0.00 | 0.08 | 0.08 | 92 | 997.8 |
| 20260905231449 | 81 | 0 | 0.0 | 0.0 | 0.00 | 0.08 | 0.08 | 91 | 997.8 |
| 20260905230949 | 81 | 0 | 0.0 | 0.0 | 0.00 | 0.08 | 0.08 | 91 | 997.8 |
| 20260905230450 | 81 | 0 | 0.0 | 0.0 | 0.00 | 0.08 | 0.08 | 91 | 997.7 |
| 20260905225950 | 81 | 0 | 0.0 | 0.0 | 0.00 | 0.08 | 0.08 | 91 | 997.7 |
| 20260905225451 | 81 | 0 | 0.0 | 0.0 | 0.00 | 0.08 | 0.08 | 91 | 997.8 |
| 20260905224949 | 81 | 0 | 0.0 | 0.0 | 0.01 | 0.08 | 0.08 | 90 | 997.8 |
| 20260905224449 | 81 | 0 | 0.0 | 0.0 | 0.04 | 0.08 | 0.08 | 90 | 997.6 |
| 20260905223949 | 81 | 0 | 0.0 | 0.0 | 0.08 | 0.08 | 0.08 | 89 | 997.5 |
| 20260905223448 | 81 | 0 | 0.0 | 1.0 | 0.08 | 0.08 | 0.08 | 88 | 997.6 |
| 20260905222949 | 81 | 0 | 0.0 | 1.0 | 0.08 | 0.08 | 0.08 | 88 | 997.8 |
| 20260905222445 | 81 | 0 | 0.0 | 1.0 | 0.08 | 0.08 | 0.08 | 88 | 997.8 |
| 20260905221947 | 82 | 0 | 0.0 | 1.0 | 0.08 | 0.08 | 0.08 | 87 | 997.6 |
| 20260905221444 | 82 | 0 | 0.0 | 1.0 | 0.08 | 0.08 | 0.08 | 86 | 997.3 |
| 20260905220943 | 83 | 0 | 0.0 | 1.0 | 0.08 | 0.08 | 0.08 | 85 | 997.2 |
| 20260905220445 | 83 | 0 | 0.0 | 1.0 | 0.08 | 0.08 | 0.08 | 83 | 997.5 |
| 20260905215943 | 84 | 0 | 1.0 | 3.0 | 0.08 | 0.08 | 0.08 | 83 | 997.8 |
| 20260905215444 | 85 | 0 | 1.0 | 6.0 | 0.08 | 0.08 | 0.08 | 79 | 997.7 |
| 20260905214942 | 87 | 0 | 1.0 | 6.0 | 0.07 | 0.07 | 0.07 | 77 | 997.6 |
| 20260905214441 | 88 | 0 | 1.0 | 4.0 | 0.04 | 0.04 | 0.04 | 76 | 997.2 |
| 20260905213939 | 89 | 0 | 0.0 | 4.0 | 0.00 | 0.00 | 0.00 | 72 | 997.0 |
| 20260905213659 | 89 | 0 | 0.0 | 2.0 | 0.00 | 0.00 | 0.00 | 72 | 997.1 |
| 20260905213155 | 90 | 200 | 1.0 | 4.0 | 0.00 | 0.00 | 0.00 | 71 | 997.1 |
| 20260905212436 | 91 | 348 | 1.0 | 4.0 | 0.00 | 0.00 | 0.00 | 70 | 997.2 |
| 20260905211935 | 92 | 57 | 1.0 | 3.0 | 0.00 | 0.00 | 0.00 | 69 | 997.3 |
| 20260905211434 | 93 | 331 | 1.0 | 3.0 | 0.00 | 0.00 | 0.00 | 68 | 997.2 |
| 20260905210932 | 94 | 59 | 0.0 | 0.0 | 0.00 | 0.00 | 0.00 | 67 | 997.1 |
| 20260905210649 | 94 | 59 | 0.0 | 2.0 | 0.00 | 0.00 | 0.00 | 65 | 997.1 |
| 20260905205929 | 94 | 154 | 0.0 | 2.0 | 0.00 | 0.00 | 0.00 | 64 | 997.0 |
| 20260905205430 | 94 | 0 | 1.0 | 2.0 | 0.00 | 0.00 | 0.00 | 64 | 997.1 |
| 20260905204922 | 94 | 0 | 0.0 | 2.0 | 0.00 | 0.00 | 0.00 | 66 | 997.1 |
| 20260905204419 | 94 | 112 | 0.0 | 3.0 | 0.00 | 0.00 | 0.00 | 65 | 997.0 |
| 20260905204143 | 94 | 0 | 1.0 | 4.0 | 0.00 | 0.00 | 0.00 | 64 | 997.0 |
| 20260905203418 | 94 | 168 | 1.0 | 4.0 | 0.00 | 0.00 | 0.00 | 64 | 997.1 |
| 20260905202917 | 94 | 37 | 1.0 | 5.0 | 0.00 | 0.00 | 0.00 | 63 | 997.1 |
| 20260905202417 | 94 | 159 | 1.0 | 5.0 | 0.00 | 0.00 | 0.00 | 64 | 997.1 |
| 20260905201913 | 94 | 199 | 1.0 | 4.0 | 0.00 | 0.00 | 0.00 | 66 | 997.1 |
| 20260905201900 | 94 | 277 | 1.0 | 4.0 | 0.00 | 0.00 | 0.00 | 67 | 997.3 |
| 20260905200909 | 94 | 208 | 1.0 | 4.0 | 0.00 | 0.00 | 0.00 | 67 | 997.4 |
| 20260905200409 | 93 | 31 | 1.0 | 3.0 | 0.00 | 0.00 | 0.00 | 68 | 997.5 |
| 20260905195910 | 93 | 292 | 1.0 | 2.0 | 0.00 | 0.00 | 0.00 | 67 | 997.5 |
| 20260905195405 | 93 | 0 | 1.0 | 4.0 | 0.00 | 0.00 | 0.00 | 68 | 997.5 |
| 20260905194902 | 93 | 175 | 1.0 | 4.0 | 0.00 | 0.00 | 0.00 | 68 | 997.4 |
| 20260905194402 | 93 | 0 | 0.0 | 1.0 | 0.00 | 0.00 | 0.00 | 68 | 997.5 |
| 20260905194130 | 92 | 56 | 0.0 | 0.0 | 0.00 | 0.00 | 0.00 | 68 | 997.6 |
| 20260905193404 | 92 | 0 | 0.0 | 2.0 | 0.00 | 0.00 | 0.00 | 68 | 997.7 |
| 20260905193125 | 92 | 0 | 0.0 | 3.0 | 0.00 | 0.00 | 0.00 | 69 | 997.8 |
| 20260905192620 | 92 | 195 | 0.0 | 3.0 | 0.00 | 0.00 | 0.00 | 70 | 997.9 |
| 20260905191900 | 92 | 150 | 0.0 | 0.0 | 0.00 | 0.00 | 0.00 | 71 | 998.0 |
| 20260905191359 | 92 | 151 | 0.0 | 0.0 | 0.00 | 0.00 | 0.00 | 72 | 998.2 |
| 20260905190900 | 92 | 12 | 0.0 | 0.0 | 0.00 | 0.00 | 0.00 | 72 | 998.2 |
| 20260905190358 | 92 | 11 | 0.0 | 1.0 | 0.00 | 0.00 | 0.00 | 71 | 998.3 |
| 20260905190117 | 92 | 13 | 0.0 | 1.0 | 0.00 | 0.00 | 0.00 | 70 | 998.3 |
| 20260905185357 | 93 | 13 | 0.0 | 1.0 | 0.00 | 0.00 | 0.00 | 69 | 998.3 |
| 20260905184858 | 93 | 17 | 0.0 | 2.0 | 0.00 | 0.00 | 0.00 | 69 | 998.3 |
| 20260905184357 | 94 | 17 | 0.0 | 2.0 | 0.00 | 0.00 | 0.00 | 68 | 998.3 |
| 20260905183858 | 94 | 203 | 0.0 | 0.0 | 0.00 | 0.00 | 0.00 | 70 | 998.4 |
| 20260905183615 | 93 | 0 | 0.0 | 2.0 | 0.00 | 0.00 | 0.00 | 69 | 998.5 |
| 20260905182857 | 93 | 0 | 1.0 | 2.0 | 0.00 | 0.00 | 0.00 | 70 | 998.7 |
| 20260905182615 | 93 | 350 | 1.0 | 2.0 | 0.00 | 0.00 | 0.00 | 71 | 998.7 |
| 20260905181853 | 93 | 342 | 1.0 | 2.0 | 0.00 | 0.00 | 0.00 | 69 | 998.8 |
| 20260905181353 | 93 | 0 | 1.0 | 2.0 | 0.00 | 0.00 | 0.00 | 70 | 998.9 |
| 20260905180853 | 93 | 0 | 1.0 | 2.0 | 0.00 | 0.00 | 0.00 | 70 | 999.0 |
| 20260905180353 | 93 | 0 | 1.0 | 3.0 | 0.00 | 0.03 | 0.00 | 69 | 999.0 |
| 20260905175853 | 93 | 182 | 1.0 | 4.0 | 0.00 | 0.10 | 0.00 | 70 | 999.2 |
| 20260905175354 | 93 | 172 | 1.0 | 4.0 | 0.00 | 0.10 | 0.00 | 70 | 999.3 |
| 20260905175337 | 93 | 25 | 1.0 | 5.0 | 0.00 | 0.10 | 0.00 | 70 | 999.3 |
| 20260905174353 | 92 | 0 | 1.0 | 5.0 | 0.00 | 0.10 | 0.00 | 71 | 999.5 |
| 20260905174111 | 92 | 0 | 1.0 | 2.0 | 0.00 | 0.10 | 0.00 | 71 | 999.5 |
| 20260905173438 | 92 | 0 | 1.0 | 4.0 | 0.00 | 0.10 | 0.00 | 74 | 999.6 |
| 20260905172350 | 91 | 50 | 1.0 | 4.0 | 0.00 | 0.10 | 0.00 | 75 | 999.7 |
| 20260905171849 | 91 | 189 | 1.0 | 3.0 | 0.00 | 0.10 | 0.00 | 74 | 999.7 |
| 20260905171349 | 90 | 190 | 1.0 | 2.0 | 0.00 | 0.10 | 0.00 | 75 | 999.8 |
| 20260905170850 | 90 | 113 | 2.0 | 5.0 | 0.00 | 0.10 | 0.00 | 77 | 999.8 |
| 20260905170349 | 89 | 131 | 1.0 | 5.0 | 0.00 | 0.10 | 0.00 | 77 | 999.9 |
| 20260905165849 | 89 | 200 | 0.0 | 5.0 | 0.00 | 0.10 | 0.00 | 76 | 999.9 |
| 20260905165608 | 89 | 220 | 0.0 | 0.0 | 0.00 | 0.10 | 0.00 | 79 | 1000.1 |
| 20260905164845 | 88 | 217 | 0.0 | 0.0 | 0.00 | 0.10 | 0.00 | 79 | 1000.1 |
| 20260905164345 | 88 | 177 | 0.0 | 0.0 | 0.00 | 0.10 | 0.00 | 81 | 1000.2 |
| 20260905164110 | 88 | 177 | 0.0 | 0.0 | 0.00 | 0.10 | 0.00 | 81 | 1000.2 |
| 20260905163345 | 88 | 177 | 0.0 | 0.0 | 0.00 | 0.10 | 0.00 | 80 | 1000.2 |
| 20260905163109 | 88 | 190 | 0.0 | 0.0 | 0.00 | 0.10 | 0.00 | 83 | 1000.2 |
| 20260905162345 | 88 | 76 | 0.0 | 0.0 | 0.00 | 0.10 | 0.00 | 82 | 1000.2 |
| 20260905161845 | 88 | 81 | 0.0 | 0.0 | 0.00 | 0.10 | 0.00 | 82 | 1000.2 |
| 20260905161345 | 88 | 335 | 0.0 | 0.0 | 0.00 | 0.10 | 0.00 | 85 | 1000.2 |
| 20260905160842 | 87 | 311 | 0.0 | 0.0 | 0.00 | 0.10 | 0.00 | 84 | 1000.1 |
| 20260905160341 | 88 | 311 | 0.0 | 0.0 | 0.00 | 0.10 | 0.00 | 85 | 1000.1 |
| 20260905155842 | 87 | 310 | 0.0 | 0.0 | 0.00 | 0.10 | 0.00 | 86 | 1000.1 |
| 20260905155341 | 87 | 86 | 0.0 | 0.0 | 0.00 | 0.10 | 0.00 | 85 | 1000.1 |
| 20260905154841 | 87 | 308 | 0.0 | 0.0 | 0.00 | 0.10 | 0.00 | 86 | 1000.2 |
| 20260905154343 | 87 | 5 | 0.0 | 0.0 | 0.00 | 0.10 | 0.00 | 88 | 1000.2 |
| 20260905153842 | 86 | 148 | 0.0 | 0.0 | 0.00 | 0.10 | 0.00 | 89 | 1000.2 |
| 20260905153342 | 86 | 349 | 0.0 | 0.0 | 0.00 | 0.10 | 0.00 | 90 | 1000.3 |
| 20260905152843 | 85 | 226 | 0.0 | 0.0 | 0.00 | 0.10 | 0.00 | 92 | 1000.3 |
| 20260905152338 | 85 | 204 | 0.0 | 1.0 | 0.00 | 0.10 | 0.00 | 94 | 1000.2 |
| 20260905152102 | 84 | 192 | 0.0 | 1.0 | 0.00 | 0.10 | 0.00 | 94 | 1000.2 |
| 20260905151338 | 84 | 114 | 0.0 | 0.0 | 0.00 | 0.10 | 0.00 | 95 | 1000.2 |
| 20260905150837 | 83 | 17 | 0.0 | 0.0 | 0.00 | 0.10 | 0.00 | 96 | 1000.2 |
| 20260905150557 | 83 | 19 | 0.0 | 0.0 | 0.00 | 0.10 | 0.00 | 96 | 1000.2 |
| 20260905145836 | 83 | 172 | 0.0 | 0.0 | 0.00 | 0.10 | 0.00 | 97 | 1000.2 |
| 20260905145337 | 82 | 172 | 0.0 | 2.0 | 0.00 | 0.10 | 0.00 | 98 | 1000.1 |
| 20260905144836 | 82 | 172 | 1.0 | 4.0 | 0.00 | 0.10 | 0.00 | 98 | 1000.1 |
| 20260905144337 | 82 | 138 | 0.0 | 4.0 | 0.00 | 0.10 | 0.00 | 99 | 1000.1 |
| 20260905143837 | 82 | 350 | 0.0 | 0.0 | 0.00 | 0.10 | 0.00 | 100 | 1000.0 |
| 20260905143336 | 81 | 349 | 0.0 | 0.0 | 0.00 | 0.10 | 0.00 | 100 | 1000.0 |
| 20260905142837 | 80 | 0 | 0.0 | 0.0 | 0.00 | 0.10 | 0.00 | 100 | 1000.0 |
| 20260905142338 | 80 | 0 | 0.0 | 0.0 | 0.00 | 0.10 | 0.00 | 100 | 1000.0 |
| 20260905141837 | 80 | 0 | 0.0 | 0.0 | 0.00 | 0.10 | 0.00 | 100 | 1000.0 |
| 20260905141337 | 79 | 0 | 0.0 | 0.0 | 0.00 | 0.10 | 0.00 | 100 | 1000.0 |
| 20260905140837 | 79 | 0 | 0.0 | 0.0 | 0.00 | 0.10 | 0.00 | 100 | 1000.1 |
| 20260905140337 | 79 | 0 | 0.0 | 0.0 | 0.00 | 0.11 | 0.00 | 100 | 1000.1 |
| 20260905135836 | 79 | 0 | 0.0 | 0.0 | 0.00 | 0.11 | 0.00 | 100 | 1000.1 |
| 20260905135337 | 78 | 0 | 0.0 | 0.0 | 0.00 | 0.11 | 0.00 | 100 | 1000.0 |
| 20260905134834 | 78 | 0 | 0.0 | 0.0 | 0.00 | 0.11 | 0.00 | 100 | 1000.0 |
| 20260905134334 | 78 | 0 | 0.0 | 0.0 | 0.00 | 0.11 | 0.00 | 100 | 1000.0 |
| 20260905133832 | 77 | 0 | 0.0 | 0.0 | 0.00 | 0.11 | 0.00 | 100 | 999.9 |
| 20260905133334 | 77 | 0 | 0.0 | 0.0 | 0.00 | 0.11 | 0.00 | 100 | 999.9 |
| 20260905132831 | 77 | 0 | 0.0 | 0.0 | 0.00 | 0.11 | 0.00 | 100 | 999.9 |
| 20260905132326 | 77 | 0 | 0.0 | 0.0 | 0.00 | 0.11 | 0.00 | 100 | 1000.0 |
| 20260905131827 | 77 | 0 | 0.0 | 0.0 | 0.00 | 0.11 | 0.00 | 100 | 1000.0 |
| 20260905131324 | 76 | 0 | 0.0 | 0.0 | 0.00 | 0.11 | 0.00 | 99 | 999.9 |
| 20260905130824 | 76 | 0 | 0.0 | 0.0 | 0.00 | 0.11 | 0.00 | 99 | 999.9 |
| 20260905130319 | 76 | 0 | 0.0 | 0.0 | 0.00 | 0.11 | 0.00 | 99 | 999.9 |
| 20260905125817 | 76 | 0 | 0.0 | 0.0 | 0.00 | 0.11 | 0.00 | 99 | 999.8 |
| 20260905125317 | 76 | 0 | 0.0 | 0.0 | 0.00 | 0.11 | 0.00 | 99 | 999.7 |
| 20260905124814 | 76 | 0 | 0.0 | 0.0 | 0.00 | 0.11 | 0.00 | 99 | 999.6 |
| 20260905124315 | 76 | 0 | 0.0 | 0.0 | 0.00 | 0.11 | 0.00 | 98 | 999.6 |
| 20260905123814 | 76 | 0 | 0.0 | 0.0 | 0.00 | 0.11 | 0.00 | 98 | 999.5 |
| 20260905123313 | 76 | 0 | 0.0 | 0.0 | 0.00 | 0.11 | 0.00 | 98 | 999.4 |
| 20260905122812 | 76 | 0 | 0.0 | 0.0 | 0.00 | 0.11 | 0.00 | 98 | 999.4 |
| 20260905122313 | 76 | 0 | 0.0 | 0.0 | 0.00 | 0.11 | 0.00 | 98 | 999.3 |
| 20260905121811 | 76 | 0 | 0.0 | 0.0 | 0.00 | 0.11 | 0.00 | 98 | 999.3 |
| 20260905121311 | 76 | 0 | 0.0 | 0.0 | 0.00 | 0.11 | 0.00 | 98 | 999.3 |
| 20260905121026 | 76 | 0 | 0.0 | 0.0 | 0.00 | 0.11 | 0.00 | 98 | 999.2 |
| 20260905120301 | 76 | 0 | 0.0 | 0.0 | 0.00 | 0.11 | 0.00 | 98 | 999.1 |
| 20260905115759 | 76 | 0 | 0.0 | 0.0 | 0.00 | 0.11 | 0.00 | 98 | 999.1 |
| 20260905115520 | 76 | 0 | 0.0 | 0.0 | 0.00 | 0.11 | 0.00 | 98 | 999.0 |
| 20260905115019 | 76 | 0 | 0.0 | 0.0 | 0.00 | 0.11 | 0.00 | 98 | 999.0 |
| 20260905114259 | 76 | 0 | 0.0 | 0.0 | 0.00 | 0.11 | 0.00 | 98 | 999.0 |
| 20260905113757 | 76 | 0 | 0.0 | 0.0 | 0.00 | 0.11 | 0.00 | 98 | 999.0 |
| 20260905113256 | 76 | 0 | 0.0 | 0.0 | 0.00 | 0.11 | 0.00 | 98 | 999.0 |
| 20260905112752 | 76 | 0 | 0.0 | 0.0 | 0.00 | 0.11 | 0.00 | 98 | 998.8 |
| 20260905112515 | 76 | 0 | 0.0 | 0.0 | 0.00 | 0.11 | 0.00 | 98 | 998.8 |
| 20260905111748 | 76 | 0 | 0.0 | 0.0 | 0.00 | 0.11 | 0.00 | 98 | 998.8 |
| 20260905111507 | 76 | 0 | 0.0 | 0.0 | 0.00 | 0.11 | 0.00 | 98 | 998.8 |
| 20260905110747 | 76 | 0 | 0.0 | 0.0 | 0.00 | 0.11 | 0.00 | 98 | 998.7 |
| 20260905110245 | 76 | 0 | 0.0 | 0.0 | 0.00 | 0.11 | 0.00 | 98 | 998.5 |
| 20260905105745 | 76 | 0 | 0.0 | 0.0 | 0.00 | 0.11 | 0.00 | 98 | 998.5 |
| 20260905105244 | 76 | 0 | 0.0 | 0.0 | 0.00 | 0.11 | 0.00 | 98 | 998.4 |
| 20260905105007 | 76 | 0 | 0.0 | 0.0 | 0.00 | 0.11 | 0.00 | 98 | 998.4 |
| 20260905104242 | 76 | 0 | 0.0 | 0.0 | 0.00 | 0.11 | 0.00 | 98 | 998.4 |
| 20260905103740 | 76 | 0 | 0.0 | 0.0 | 0.00 | 0.11 | 0.00 | 98 | 998.5 |
| 20260905103240 | 76 | 0 | 0.0 | 0.0 | 0.00 | 0.11 | 0.00 | 97 | 998.5 |
| 20260905102733 | 76 | 0 | 0.0 | 0.0 | 0.00 | 0.11 | 0.00 | 97 | 998.5 |
| 20260905102232 | 76 | 0 | 0.0 | 0.0 | 0.00 | 0.11 | 0.00 | 97 | 998.4 |
| 20260905101730 | 76 | 0 | 0.0 | 0.0 | 0.00 | 0.11 | 0.00 | 97 | 998.4 |
| 20260905101226 | 76 | 0 | 0.0 | 0.0 | 0.00 | 0.11 | 0.00 | 97 | 998.4 |
| 20260905100726 | 76 | 0 | 0.0 | 0.0 | 0.00 | 0.11 | 0.00 | 97 | 998.4 |
| 20260905100226 | 76 | 0 | 0.0 | 0.0 | 0.00 | 0.11 | 0.00 | 97 | 998.4 |
| 20260905100215 | 76 | 0 | 0.0 | 0.0 | 0.00 | 0.11 | 0.00 | 97 | 998.4 |
| 20260905095226 | 76 | 0 | 0.0 | 0.0 | 0.00 | 0.12 | 0.00 | 97 | 998.4 |
| 20260905094726 | 76 | 0 | 0.0 | 0.0 | 0.00 | 0.13 | 0.00 | 97 | 998.5 |
| 20260905094227 | 76 | 0 | 0.0 | 0.0 | 0.00 | 0.13 | 0.00 | 97 | 998.5 |
| 20260905093724 | 76 | 0 | 0.0 | 0.0 | 0.00 | 0.13 | 0.00 | 97 | 998.4 |
| 20260905093225 | 76 | 0 | 0.0 | 0.0 | 0.00 | 0.13 | 0.00 | 97 | 998.4 |
| 20260905092723 | 76 | 0 | 0.0 | 0.0 | 0.00 | 0.13 | 0.00 | 97 | 998.4 |
| 20260905092222 | 77 | 0 | 0.0 | 0.0 | 0.00 | 0.13 | 0.00 | 97 | 998.4 |
| 20260905091721 | 77 | 0 | 0.0 | 0.0 | 0.00 | 0.13 | 0.00 | 97 | 998.4 |
| 20260905091222 | 77 | 0 | 0.0 | 0.0 | 0.00 | 0.13 | 0.00 | 97 | 998.4 |
| 20260905090724 | 77 | 0 | 0.0 | 0.0 | 0.00 | 0.13 | 0.00 | 97 | 998.3 |
| 20260905090222 | 77 | 0 | 0.0 | 0.0 | 0.00 | 0.13 | 0.00 | 97 | 998.4 |
| 20260905085723 | 77 | 0 | 0.0 | 0.0 | 0.00 | 0.13 | 0.00 | 97 | 998.5 |
| 20260905085222 | 77 | 0 | 0.0 | 0.0 | 0.00 | 0.13 | 0.00 | 97 | 998.4 |
| 20260905084724 | 77 | 0 | 0.0 | 0.0 | 0.00 | 0.13 | 0.00 | 97 | 998.4 |
| 20260905084222 | 77 | 0 | 0.0 | 0.0 | 0.00 | 0.13 | 0.00 | 97 | 998.4 |
| 20260905083722 | 77 | 0 | 0.0 | 0.0 | 0.00 | 0.13 | 0.00 | 97 | 998.4 |
| 20260905083222 | 77 | 0 | 0.0 | 0.0 | 0.00 | 0.13 | 0.00 | 97 | 998.3 |
| 20260905082721 | 77 | 0 | 0.0 | 0.0 | 0.00 | 0.13 | 0.00 | 97 | 998.3 |
| 20260905082222 | 77 | 0 | 0.0 | 0.0 | 0.00 | 0.13 | 0.00 | 97 | 998.3 |
| 20260905081722 | 77 | 0 | 0.0 | 0.0 | 0.00 | 0.13 | 0.00 | 97 | 998.4 |
| 20260905081217 | 77 | 0 | 0.0 | 0.0 | 0.00 | 0.13 | 0.00 | 96 | 998.3 |
| 20260905080938 | 77 | 0 | 0.0 | 0.0 | 0.00 | 0.13 | 0.00 | 96 | 998.3 |
| 20260905080217 | 77 | 0 | 0.0 | 0.0 | 0.00 | 0.13 | 0.00 | 96 | 998.2 |
| 20260905075718 | 77 | 0 | 0.0 | 0.0 | 0.00 | 0.13 | 0.00 | 96 | 998.2 |
| 20260905075218 | 77 | 0 | 0.0 | 0.0 | 0.00 | 0.13 | 0.00 | 96 | 998.2 |
| 20260905074718 | 77 | 0 | 0.0 | 0.0 | 0.00 | 0.13 | 0.00 | 96 | 998.3 |
| 20260905074218 | 77 | 0 | 0.0 | 0.0 | 0.00 | 0.13 | 0.00 | 96 | 998.3 |
| 20260905073722 | 77 | 0 | 0.0 | 0.0 | 0.00 | 0.13 | 0.00 | 96 | 998.4 |
| 20260905073218 | 77 | 0 | 0.0 | 0.0 | 0.00 | 0.13 | 0.00 | 96 | 998.4 |
| 20260905072719 | 77 | 0 | 0.0 | 0.0 | 0.00 | 0.13 | 0.00 | 96 | 998.5 |
| 20260905072219 | 77 | 0 | 0.0 | 0.0 | 0.00 | 0.13 | 0.00 | 96 | 998.7 |
| 20260905071717 | 77 | 0 | 0.0 | 0.0 | 0.00 | 0.13 | 0.00 | 96 | 998.7 |
| 20260905071218 | 77 | 0 | 0.0 | 0.0 | 0.00 | 0.13 | 0.00 | 96 | 998.8 |
| 20260905070718 | 77 | 0 | 0.0 | 0.0 | 0.00 | 0.13 | 0.00 | 96 | 998.9 |
| 20260905070219 | 77 | 0 | 0.0 | 0.0 | 0.00 | 0.13 | 0.00 | 96 | 998.9 |
| 20260905065718 | 77 | 0 | 0.0 | 0.0 | 0.00 | 0.13 | 0.00 | 96 | 998.9 |
| 20260905065220 | 77 | 0 | 0.0 | 0.0 | 0.00 | 0.13 | 0.00 | 96 | 998.9 |
| 20260905064714 | 77 | 0 | 0.0 | 0.0 | 0.00 | 0.13 | 0.00 | 96 | 998.9 |
| 20260905064215 | 77 | 0 | 0.0 | 0.0 | 0.00 | 0.13 | 0.00 | 95 | 998.9 |
| 20260905063714 | 77 | 0 | 0.0 | 0.0 | 0.00 | 0.13 | 0.00 | 95 | 999.0 |
| 20260905063214 | 77 | 0 | 0.0 | 0.0 | 0.00 | 0.13 | 0.00 | 95 | 999.0 |
| 20260905063156 | 78 | 0 | 0.0 | 0.0 | 0.00 | 0.13 | 0.00 | 95 | 999.0 |
| 20260905062214 | 78 | 0 | 0.0 | 0.0 | 0.00 | 0.13 | 0.00 | 95 | 998.9 |
| 20260905061713 | 78 | 0 | 0.0 | 0.0 | 0.00 | 0.13 | 0.00 | 95 | 998.9 |
| 20260905061214 | 78 | 0 | 0.0 | 0.0 | 0.00 | 0.13 | 0.00 | 95 | 999.0 |
| 20260905060714 | 78 | 0 | 0.0 | 0.0 | 0.00 | 0.13 | 0.00 | 95 | 999.0 |
| 20260905060211 | 78 | 0 | 0.0 | 0.0 | 0.00 | 0.13 | 0.00 | 95 | 999.1 |
| 20260905055709 | 78 | 0 | 0.0 | 0.0 | 0.00 | 0.13 | 0.00 | 95 | 998.9 |
| 20260905055209 | 78 | 0 | 0.0 | 0.0 | 0.00 | 0.13 | 0.00 | 95 | 998.9 |
| 20260905054710 | 78 | 0 | 0.0 | 0.0 | 0.00 | 0.13 | 0.00 | 95 | 999.0 |
| 20260905054209 | 78 | 0 | 0.0 | 0.0 | 0.00 | 0.13 | 0.00 | 95 | 999.0 |
| 20260905053711 | 78 | 0 | 0.0 | 0.0 | 0.00 | 0.13 | 0.00 | 95 | 998.9 |
| 20260905053211 | 78 | 0 | 0.0 | 0.0 | 0.00 | 0.13 | 0.00 | 95 | 998.9 |
| 20260905052711 | 78 | 0 | 0.0 | 0.0 | 0.00 | 0.13 | 0.00 | 95 | 999.0 |
| 20260905052430 | 78 | 0 | 0.0 | 0.0 | 0.00 | 0.13 | 0.00 | 95 | 999.0 |
| 20260905051706 | 78 | 0 | 0.0 | 0.0 | 0.00 | 0.13 | 0.00 | 95 | 999.1 |
| 20260905051423 | 78 | 0 | 0.0 | 0.0 | 0.00 | 0.13 | 0.00 | 95 | 999.0 |
| 20260905050705 | 78 | 0 | 0.0 | 0.0 | 0.00 | 0.13 | 0.00 | 95 | 999.1 |
| 20260905050206 | 78 | 0 | 0.0 | 0.0 | 0.00 | 0.13 | 0.00 | 95 | 999.1 |
| 20260905045703 | 78 | 0 | 0.0 | 0.0 | 0.00 | 0.13 | 0.13 | 95 | 999.1 |
| 20260905045204 | 78 | 0 | 0.0 | 0.0 | 0.00 | 0.13 | 0.13 | 94 | 999.2 |
| 20260905044705 | 78 | 0 | 0.0 | 0.0 | 0.00 | 0.13 | 0.13 | 94 | 999.1 |
| 20260905044426 | 78 | 0 | 0.0 | 0.0 | 0.00 | 0.13 | 0.13 | 94 | 999.2 |
| 20260905043703 | 78 | 0 | 0.0 | 0.0 | 0.00 | 0.13 | 0.13 | 94 | 999.1 |
| 20260905043203 | 78 | 0 | 0.0 | 0.0 | 0.00 | 0.13 | 0.13 | 94 | 999.0 |
| 20260905042702 | 78 | 0 | 0.0 | 0.0 | 0.00 | 0.13 | 0.13 | 94 | 999.0 |
| 20260905042202 | 78 | 0 | 0.0 | 0.0 | 0.00 | 0.13 | 0.13 | 94 | 999.1 |
| 20260905041704 | 78 | 0 | 0.0 | 0.0 | 0.00 | 0.13 | 0.13 | 94 | 999.1 |
| 20260905041200 | 79 | 0 | 0.0 | 0.0 | 0.00 | 0.13 | 0.13 | 94 | 999.1 |
| 20260905040701 | 79 | 0 | 0.0 | 0.0 | 0.00 | 0.13 | 0.13 | 94 | 999.1 |
| 20260905040159 | 79 | 0 | 0.0 | 0.0 | 0.00 | 0.13 | 0.13 | 94 | 999.1 |
| 20260905035656 | 79 | 0 | 0.0 | 0.0 | 0.00 | 0.13 | 0.13 | 94 | 999.1 |
| 20260905035418 | 79 | 0 | 0.0 | 0.0 | 0.00 | 0.13 | 0.13 | 94 | 999.2 |
| 20260905034657 | 79 | 0 | 0.0 | 0.0 | 0.00 | 0.13 | 0.13 | 94 | 999.1 |
| 20260905034156 | 79 | 0 | 0.0 | 0.0 | 0.00 | 0.13 | 0.13 | 94 | 999.1 |
| 20260905033655 | 79 | 0 | 0.0 | 0.0 | 0.00 | 0.13 | 0.13 | 93 | 999.1 |
| 20260905033154 | 79 | 0 | 0.0 | 0.0 | 0.00 | 0.13 | 0.13 | 93 | 999.2 |
| 20260905032653 | 79 | 0 | 0.0 | 0.0 | 0.00 | 0.13 | 0.13 | 93 | 999.1 |
| 20260905032411 | 79 | 0 | 0.0 | 0.0 | 0.00 | 0.13 | 0.13 | 93 | 999.2 |
| 20260905031651 | 80 | 0 | 0.0 | 0.0 | 0.00 | 0.13 | 0.13 | 93 | 999.2 |
| 20260905031152 | 80 | 0 | 0.0 | 0.0 | 0.00 | 0.13 | 0.13 | 93 | 999.3 |
| 20260905031129 | 80 | 0 | 0.0 | 0.0 | 0.00 | 0.13 | 0.13 | 93 | 999.2 |
| 20260905030148 | 80 | 0 | 0.0 | 0.0 | 0.00 | 0.13 | 0.13 | 93 | 999.2 |
| 20260905025648 | 80 | 0 | 0.0 | 0.0 | 0.00 | 0.13 | 0.13 | 93 | 999.2 |
| 20260905025147 | 80 | 0 | 0.0 | 0.0 | 0.00 | 0.13 | 0.13 | 93 | 999.2 |
| 20260905024646 | 80 | 0 | 0.0 | 0.0 | 0.00 | 0.13 | 0.13 | 93 | 999.2 |
| 20260905024146 | 80 | 0 | 0.0 | 0.0 | 0.00 | 0.13 | 0.13 | 92 | 999.2 |
| 20260905023904 | 80 | 0 | 0.0 | 0.0 | 0.00 | 0.13 | 0.13 | 92 | 999.2 |
| 20260905023147 | 80 | 0 | 0.0 | 2.0 | 0.00 | 0.13 | 0.13 | 93 | 999.2 |
| 20260905023137 | 80 | 0 | 0.0 | 2.0 | 0.00 | 0.13 | 0.13 | 92 | 999.1 |
| 20260905022142 | 80 | 0 | 0.0 | 0.0 | 0.00 | 0.13 | 0.13 | 92 | 999.0 |
| 20260905021642 | 80 | 0 | 0.0 | 0.0 | 0.00 | 0.13 | 0.13 | 92 | 998.9 |
| 20260905021143 | 81 | 0 | 0.0 | 0.0 | 0.00 | 0.13 | 0.13 | 92 | 998.9 |
| 20260905020910 | 81 | 0 | 0.0 | 1.0 | 0.00 | 0.13 | 0.13 | 92 | 998.9 |
| 20260905020142 | 81 | 193 | 1.0 | 3.0 | 0.00 | 0.13 | 0.13 | 92 | 998.8 |
| 20260905015643 | 81 | 0 | 1.0 | 3.0 | 0.00 | 0.13 | 0.13 | 92 | 998.6 |
| 20260905015141 | 81 | 0 | 0.0 | 3.0 | 0.00 | 0.13 | 0.13 | 91 | 998.6 |
| 20260905014642 | 81 | 0 | 0.0 | 3.0 | 0.00 | 0.13 | 0.13 | 91 | 998.5 |
| 20260905014409 | 81 | 69 | 0.0 | 0.0 | 0.00 | 0.13 | 0.13 | 91 | 998.5 |
| 20260905013643 | 81 | 69 | 0.0 | 0.0 | 0.00 | 0.13 | 0.13 | 91 | 998.4 |
| 20260905013143 | 81 | 69 | 0.0 | 0.0 | 0.00 | 0.13 | 0.13 | 91 | 998.3 |
| 20260905012642 | 81 | 0 | 0.0 | 0.0 | 0.00 | 0.13 | 0.13 | 91 | 998.2 |
| 20260905012138 | 82 | 68 | 0.0 | 0.0 | 0.00 | 0.13 | 0.13 | 91 | 998.3 |
| 20260905011906 | 82 | 68 | 0.0 | 0.0 | 0.00 | 0.13 | 0.13 | 91 | 998.2 |
| 20260905011139 | 82 | 67 | 0.0 | 0.0 | 0.00 | 0.13 | 0.13 | 91 | 998.2 |
| 20260905010906 | 82 | 69 | 0.0 | 0.0 | 0.00 | 0.13 | 0.13 | 90 | 998.2 |
| 20260905010139 | 82 | 68 | 0.0 | 0.0 | 0.00 | 0.13 | 0.13 | 90 | 998.0 |
| 20260905005638 | 82 | 67 | 0.0 | 0.0 | 0.00 | 0.13 | 0.13 | 89 | 998.1 |
| 20260905005138 | 83 | 69 | 0.0 | 0.0 | 0.00 | 0.13 | 0.13 | 90 | 998.1 |
| 20260905004637 | 83 | 67 | 0.0 | 0.0 | 0.00 | 0.13 | 0.13 | 89 | 998.1 |
| 20260905004400 | 83 | 68 | 0.0 | 0.0 | 0.00 | 0.13 | 0.13 | 90 | 998.1 |
| 20260905003633 | 83 | 68 | 0.0 | 0.0 | 0.00 | 0.13 | 0.13 | 89 | 997.9 |
| 20260905003134 | 83 | 66 | 0.0 | 0.0 | 0.00 | 0.13 | 0.13 | 89 | 997.8 |
| 20260905002634 | 83 | 68 | 0.0 | 0.0 | 0.00 | 0.13 | 0.13 | 89 | 997.8 |
| 20260905002134 | 83 | 67 | 0.0 | 0.0 | 0.00 | 0.13 | 0.13 | 89 | 997.8 |
| 20260905001634 | 83 | 69 | 0.0 | 0.0 | 0.00 | 0.13 | 0.13 | 89 | 997.8 |
| 20260905001134 | 83 | 67 | 0.0 | 0.0 | 0.00 | 0.13 | 0.13 | 89 | 997.7 |
| 20260905000634 | 84 | 65 | 0.0 | 0.0 | 0.00 | 0.13 | 0.13 | 89 | 997.8 |
| 20260905000134 | 84 | 67 | 0.0 | 0.0 | 0.00 | 0.13 | 0.13 | 89 | 997.8 |
| 20260904235634 | 84 | 69 | 0.0 | 0.0 | 0.00 | 0.13 | 0.13 | 90 | 997.9 |
| 20260904235130 | 84 | 68 | 0.0 | 0.0 | 0.00 | 0.13 | 0.13 | 91 | 997.9 |
| 20260904234630 | 84 | 67 | 0.0 | 0.0 | 0.00 | 0.13 | 0.13 | 91 | 997.8 |
| 20260904234130 | 85 | 66 | 0.0 | 1.0 | 0.00 | 0.13 | 0.13 | 90 | 997.8 |
| 20260904233630 | 85 | 66 | 0.0 | 1.0 | 0.00 | 0.13 | 0.13 | 90 | 997.9 |
| 20260904233354 | 85 | 67 | 0.0 | 1.0 | 0.00 | 0.13 | 0.13 | 91 | 997.9 |
| 20260904232633 | 85 | 67 | 0.0 | 2.0 | 0.00 | 0.13 | 0.13 | 90 | 997.9 |